Wind_Speed
43 42 38 40 37 36 37 35 33 29 27 23 18 16 15 15 13 14 14 15 15 16
40 40 39 41 37 36 34 32 31 29 27 23 19 17 15 15 14 14 15 15 17 17
40 40 41 43 38 35 33 31 30 29 28 24 21 19 16 16 15 16 16 17 17 18
36 36 37 42 38 35 34 33 31 30 29 25 22 20 18 16 15 16 16 16 18 20
34 39 39 39 39 37 36 34 33 30 29 25 22 20 18 17 15 16 15 17 17 18
31 36 37 38 39 38 36 34 32 30 29 26 23 20 18 16 16 15 17 17 17 18
33 35 36 40 41 39 37 35 32 30 28 25 22 20 18 16 15 15 16 17 19 19
31 32 35 39 41 39 36 34 32 29 27 24 21 20 17 15 15 14 15 17 17 18
29 33 35 37 39 40 38 34 33 29 27 24 22 19 16 14 13 14 15 15 16 16
31 33 35 37 38 39 40 35 32 29 26 24 21 18 15 14 13 13 14 14 14 18
33 34 34 37 37 36 36 37 32 29 26 23 21 17 15 13 13 13 15 16 16 15
35 35 35 37 37 36 35 33 32 30 26 23 20 17 15 13 12 14 15 16 16 16
35 36 36 36 36 35 35 34 31 26 25 23 18 16 15 13 12 13 15 13 14 14
33 34 35 34 34 36 32 31 27 24 24 20 17 16 15 14 13 13 14 13 13 14
Wind_Direction
198 199 198 203 200 200 200 203 200 200 201 201 203 207 210 218 229 244 252 260 267 271
196 196 196 204 204 204 202 204 200 200 200 202 204 209 217 226 238 246 257 264 271 269
195 197 199 203 199 200 201 197 196 197 201 203 207 212 222 233 238 252 260 267 270 276
192 192 196 200 199 197 196 194 195 195 199 203 210 213 223 231 242 252 263 269 276 279
193 191 192 194 196 196 193 194 194 195 200 206 210 215 222 229 242 253 261 275 278 277
197 192 189 190 193 193 191 193 196 198 199 203 208 214 221 232 245 255 270 277 276 279
199 194 190 190 193 191 192 192 194 196 200 203 207 213 220 231 244 261 271 276 275 279
200 195 191 189 191 191 191 192 193 194 198 203 208 212 220 227 246 258 271 273 274 280
198 194 191 187 187 189 191 191 192 194 197 202 207 215 216 231 239 260 265 267 278 280
196 194 189 185 185 185 188 189 191 192 196 203 208 208 215 223 245 254 263 268 280 291
193 194 188 181 183 183 184 187 188 190 197 202 205 210 213 225 245 256 261 276 289 290
193 190 187 182 179 179 180 181 187 191 194 198 203 207 211 223 242 252 267 281 287 292
196 189 187 181 175 175 179 183 185 187 193 197 204 205 214 221 238 253 274 282 285 285
193 188 184 175 170 171 172 176 180 182 187 194 203 207 216 226 233 254 276 279 285 291
Height
741 748 757 763 771 778 783 789 795 800 805 809 813 816 817 818 820 821 822 822 822 822
733 740 747 756 764 771 778 784 791 795 801 805 809 812 813 814 816 817 817 817 817 816
723 732 740 749 756 763 771 779 785 789 796 800 804 807 809 810 811 812 812 812 811 811
717 726 734 741 750 756 764 771 778 782 790 794 798 801 803 805 806 807 807 807 806 804
713 718 725 733 742 750 756 764 771 776 782 788 792 796 798 800 801 801 802 801 800 798
711 713 717 726 735 744 751 758 765 771 776 781 786 789 792 795 796 796 796 795 794 793
703 708 713 719 728 736 744 751 758 765 771 776 780 783 786 789 790 790 790 790 789 787
698 704 709 715 722 731 739 746 753 760 766 771 774 778 780 783 784 784 784 784 783 781
694 698 703 709 716 724 733 741 748 754 760 765 769 773 776 778 779 779 779 778 777 776
687 692 696 703 711 718 725 735 742 749 755 761 765 768 772 774 774 774 773 773 772 771
676 684 691 694 703 712 719 728 736 743 750 756 760 764 767 769 770 769 768 767 766 765
666 675 683 686 693 704 712 721 729 737 744 750 755 759 762 764 764 764 762 762 761 759
660 665 674 681 688 698 709 718 725 733 740 745 751 754 757 759 760 759 758 757 755 753
653 659 669 677 684 694 705 714 723 731 737 741 745 749 751 753 755 754 753 752 750 749